Location: Poughquag
(41.6090°N, 73.6820°W)
Time: 18:56:34
(UTC-04:00)

MOZHAYETS 4 - Pass Details

Date: 17 August 2024
Orbit: 650 x 668 km, 98.3° (Epoch: 15 September)

Event Time Altitude Azimuth Distance (km) Brightness Sun altitude
Rises 03:48:07 0° 145° (SE) 2,999 11.0 -22.7°
Reaches altitude 10° 03:50:27 10° 138° (SE) 2,092 10.2 -22.4°
Maximum altitude 03:54:40 38° 70° (ENE) 1,018 9.1 -21.8°
Drops below altitude 10° 03:58:55 10° 3° (N) 2,106 10.9 -21.3°
Sets 04:01:16 0° 355° (N) 3,023 11.6 -20.9°
